sat.trackr.live / text

‹ back to catalog

STARLINK-33948

NORAD 66147 · 2025-240B

PAYLOAD ACTIVE UNKNOWN

§ Identity

Operator
Country
US
Launch date
2025-10-25
Launch site
AFWTR
Launch vehicle
Mass (kg)
RCS (m²)

Purposes: comms

External: N2YO · Heavens-Above · Gunter

§ Orbital elements

Epoch: 2026-05-25T02:11:55.555008Z

Period
94.11 min
Inclination
53.1580°
Eccentricity
0.0000771
Mean motion
15.30202999 rev/d
Perigee alt
474.7 km
Apogee alt
475.7 km
Semi-major
6,853.3 km
B*
6.7957e-4
RAAN
68.0953°
Arg perigee
98.8227°
Mean anomaly
261.2861°
Rev number
3,373

§ Raw data

STARLINK-339481 66147U 25240B   26145.09161522  .00019823  00000+0  67957-3 0  99902 66147  53.1580  68.0953 0000771  98.8227 261.2861 15.30202999 33732

JSON: /api/v1/satellites/66147 · /tle

For live sub-satellite position, see the globe view (requires WebGL).

§ Visibility from observer

Set your observer location to see the next 7 days of passes ≥ 10°. The values pass through the URL so the page stays shareable.

No JS? Fill the form by hand. The geolocation button needs JavaScript.